<?xml version="1.0"?>
<gpx xmlns="http://www.topografix.com/GPX/1/1" xmlns:xsi="http://www.w3.org/2001/XMLSchema-instance" version="1.1" creator="GPX RubyGem 1.0.0 -- http://dougfales.github.io/gpx/" xsi:schemaLocation="http://www.topografix.com/GPX/1/1 http://www.topografix.com/GPX/1/1/gpx.xsd">
  <metadata>
    <name/>
    <time>2026-05-08T07:15:10+00:00</time>
    <bound minlat="90.0" minlon="180.0" maxlat="-90.0" maxlon="-180.0"/>
  </metadata>
  <trk>
    <name/>
    <trkseg>
      <trkpt lat="43.292123" lon="5.642777">
        <time>1970-01-01T00:00:00+00:00</time>
        <ele>175.0</ele>
      </trkpt>
      <trkpt lat="43.292106" lon="5.642934">
        <time>1970-01-01T00:00:00+00:00</time>
        <ele>175.0</ele>
      </trkpt>
      <trkpt lat="43.291991" lon="5.643448">
        <time>1970-01-01T00:00:00+00:00</time>
        <ele>177.0</ele>
      </trkpt>
      <trkpt lat="43.291947" lon="5.643593">
        <time>1970-01-01T00:00:00+00:00</time>
        <ele>178.0</ele>
      </trkpt>
      <trkpt lat="43.291892" lon="5.643619">
        <time>1970-01-01T00:00:00+00:00</time>
        <ele>178.0</ele>
      </trkpt>
      <trkpt lat="43.291835" lon="5.643692">
        <time>1970-01-01T00:00:00+00:00</time>
        <ele>178.0</ele>
      </trkpt>
      <trkpt lat="43.291778" lon="5.643924">
        <time>1970-01-01T00:00:00+00:00</time>
        <ele>179.0</ele>
      </trkpt>
      <trkpt lat="43.291734" lon="5.64421">
        <time>1970-01-01T00:00:00+00:00</time>
        <ele>179.0</ele>
      </trkpt>
      <trkpt lat="43.29169" lon="5.644309">
        <time>1970-01-01T00:00:00+00:00</time>
        <ele>179.0</ele>
      </trkpt>
      <trkpt lat="43.291541" lon="5.644667">
        <time>1970-01-01T00:00:00+00:00</time>
        <ele>181.0</ele>
      </trkpt>
      <trkpt lat="43.291526" lon="5.64483">
        <time>1970-01-01T00:00:00+00:00</time>
        <ele>181.0</ele>
      </trkpt>
      <trkpt lat="43.29161" lon="5.645073">
        <time>1970-01-01T00:00:00+00:00</time>
        <ele>182.0</ele>
      </trkpt>
      <trkpt lat="43.291673" lon="5.645316">
        <time>1970-01-01T00:00:00+00:00</time>
        <ele>183.0</ele>
      </trkpt>
      <trkpt lat="43.291659" lon="5.645612">
        <time>1970-01-01T00:00:00+00:00</time>
        <ele>185.0</ele>
      </trkpt>
      <trkpt lat="43.291978" lon="5.646184">
        <time>1970-01-01T00:00:00+00:00</time>
        <ele>187.0</ele>
      </trkpt>
      <trkpt lat="43.291874" lon="5.646403">
        <time>1970-01-01T00:00:00+00:00</time>
        <ele>189.0</ele>
      </trkpt>
      <trkpt lat="43.291803" lon="5.646642">
        <time>1970-01-01T00:00:00+00:00</time>
        <ele>192.0</ele>
      </trkpt>
      <trkpt lat="43.291691" lon="5.647248">
        <time>1970-01-01T00:00:00+00:00</time>
        <ele>198.0</ele>
      </trkpt>
      <trkpt lat="43.291528" lon="5.647834">
        <time>1970-01-01T00:00:00+00:00</time>
        <ele>199.0</ele>
      </trkpt>
      <trkpt lat="43.291533" lon="5.648152">
        <time>1970-01-01T00:00:00+00:00</time>
        <ele>200.0</ele>
      </trkpt>
      <trkpt lat="43.291335" lon="5.648144">
        <time>1970-01-01T00:00:00+00:00</time>
        <ele>203.0</ele>
      </trkpt>
      <trkpt lat="43.291375" lon="5.648452">
        <time>1970-01-01T00:00:00+00:00</time>
        <ele>203.0</ele>
      </trkpt>
      <trkpt lat="43.291281" lon="5.648473">
        <time>1970-01-01T00:00:00+00:00</time>
        <ele>205.0</ele>
      </trkpt>
      <trkpt lat="43.291271" lon="5.648526">
        <time>1970-01-01T00:00:00+00:00</time>
        <ele>206.0</ele>
      </trkpt>
      <trkpt lat="43.291245" lon="5.648582">
        <time>1970-01-01T00:00:00+00:00</time>
        <ele>206.0</ele>
      </trkpt>
      <trkpt lat="43.291223" lon="5.64863">
        <time>1970-01-01T00:00:00+00:00</time>
        <ele>206.0</ele>
      </trkpt>
      <trkpt lat="43.291116" lon="5.648592">
        <time>1970-01-01T00:00:00+00:00</time>
        <ele>206.0</ele>
      </trkpt>
      <trkpt lat="43.291067" lon="5.648538">
        <time>1970-01-01T00:00:00+00:00</time>
        <ele>206.0</ele>
      </trkpt>
      <trkpt lat="43.29102" lon="5.648434">
        <time>1970-01-01T00:00:00+00:00</time>
        <ele>206.0</ele>
      </trkpt>
      <trkpt lat="43.291033" lon="5.648255">
        <time>1970-01-01T00:00:00+00:00</time>
        <ele>206.0</ele>
      </trkpt>
      <trkpt lat="43.291074" lon="5.648171">
        <time>1970-01-01T00:00:00+00:00</time>
        <ele>206.0</ele>
      </trkpt>
      <trkpt lat="43.290977" lon="5.648137">
        <time>1970-01-01T00:00:00+00:00</time>
        <ele>206.0</ele>
      </trkpt>
      <trkpt lat="43.290457" lon="5.648305">
        <time>1970-01-01T00:00:00+00:00</time>
        <ele>209.0</ele>
      </trkpt>
      <trkpt lat="43.290376" lon="5.648369">
        <time>1970-01-01T00:00:00+00:00</time>
        <ele>210.0</ele>
      </trkpt>
      <trkpt lat="43.289968" lon="5.648829">
        <time>1970-01-01T00:00:00+00:00</time>
        <ele>214.0</ele>
      </trkpt>
      <trkpt lat="43.289803" lon="5.649094">
        <time>1970-01-01T00:00:00+00:00</time>
        <ele>216.0</ele>
      </trkpt>
      <trkpt lat="43.289741" lon="5.649169">
        <time>1970-01-01T00:00:00+00:00</time>
        <ele>216.0</ele>
      </trkpt>
      <trkpt lat="43.289713" lon="5.649179">
        <time>1970-01-01T00:00:00+00:00</time>
        <ele>216.0</ele>
      </trkpt>
      <trkpt lat="43.28952" lon="5.649445">
        <time>1970-01-01T00:00:00+00:00</time>
        <ele>219.0</ele>
      </trkpt>
      <trkpt lat="43.289313" lon="5.649792">
        <time>1970-01-01T00:00:00+00:00</time>
        <ele>222.0</ele>
      </trkpt>
      <trkpt lat="43.289187" lon="5.649944">
        <time>1970-01-01T00:00:00+00:00</time>
        <ele>226.0</ele>
      </trkpt>
      <trkpt lat="43.288503" lon="5.650432">
        <time>1970-01-01T00:00:00+00:00</time>
        <ele>239.0</ele>
      </trkpt>
      <trkpt lat="43.288283" lon="5.650557">
        <time>1970-01-01T00:00:00+00:00</time>
        <ele>241.0</ele>
      </trkpt>
      <trkpt lat="43.288104" lon="5.650593">
        <time>1970-01-01T00:00:00+00:00</time>
        <ele>243.0</ele>
      </trkpt>
      <trkpt lat="43.287985" lon="5.650655">
        <time>1970-01-01T00:00:00+00:00</time>
        <ele>245.0</ele>
      </trkpt>
      <trkpt lat="43.287693" lon="5.651003">
        <time>1970-01-01T00:00:00+00:00</time>
        <ele>250.0</ele>
      </trkpt>
      <trkpt lat="43.287425" lon="5.651286">
        <time>1970-01-01T00:00:00+00:00</time>
        <ele>257.0</ele>
      </trkpt>
      <trkpt lat="43.28738" lon="5.65136">
        <time>1970-01-01T00:00:00+00:00</time>
        <ele>258.0</ele>
      </trkpt>
      <trkpt lat="43.28735" lon="5.651473">
        <time>1970-01-01T00:00:00+00:00</time>
        <ele>260.0</ele>
      </trkpt>
      <trkpt lat="43.287361" lon="5.651694">
        <time>1970-01-01T00:00:00+00:00</time>
        <ele>263.0</ele>
      </trkpt>
      <trkpt lat="43.287425" lon="5.652027">
        <time>1970-01-01T00:00:00+00:00</time>
        <ele>267.0</ele>
      </trkpt>
      <trkpt lat="43.28746" lon="5.65235">
        <time>1970-01-01T00:00:00+00:00</time>
        <ele>270.0</ele>
      </trkpt>
      <trkpt lat="43.287441" lon="5.652532">
        <time>1970-01-01T00:00:00+00:00</time>
        <ele>272.0</ele>
      </trkpt>
      <trkpt lat="43.287403" lon="5.652666">
        <time>1970-01-01T00:00:00+00:00</time>
        <ele>273.0</ele>
      </trkpt>
      <trkpt lat="43.287215" lon="5.652988">
        <time>1970-01-01T00:00:00+00:00</time>
        <ele>278.0</ele>
      </trkpt>
      <trkpt lat="43.287054" lon="5.653295">
        <time>1970-01-01T00:00:00+00:00</time>
        <ele>280.0</ele>
      </trkpt>
      <trkpt lat="43.286996" lon="5.653444">
        <time>1970-01-01T00:00:00+00:00</time>
        <ele>281.0</ele>
      </trkpt>
      <trkpt lat="43.286936" lon="5.653534">
        <time>1970-01-01T00:00:00+00:00</time>
        <ele>282.0</ele>
      </trkpt>
      <trkpt lat="43.286881" lon="5.653615">
        <time>1970-01-01T00:00:00+00:00</time>
        <ele>284.0</ele>
      </trkpt>
      <trkpt lat="43.286795" lon="5.653678">
        <time>1970-01-01T00:00:00+00:00</time>
        <ele>285.0</ele>
      </trkpt>
      <trkpt lat="43.286727" lon="5.653761">
        <time>1970-01-01T00:00:00+00:00</time>
        <ele>285.0</ele>
      </trkpt>
      <trkpt lat="43.286567" lon="5.65403">
        <time>1970-01-01T00:00:00+00:00</time>
        <ele>289.0</ele>
      </trkpt>
      <trkpt lat="43.286315" lon="5.654262">
        <time>1970-01-01T00:00:00+00:00</time>
        <ele>296.0</ele>
      </trkpt>
      <trkpt lat="43.286476" lon="5.654563">
        <time>1970-01-01T00:00:00+00:00</time>
        <ele>302.0</ele>
      </trkpt>
      <trkpt lat="43.286605" lon="5.655534">
        <time>1970-01-01T00:00:00+00:00</time>
        <ele>324.0</ele>
      </trkpt>
      <trkpt lat="43.286703" lon="5.655888">
        <time>1970-01-01T00:00:00+00:00</time>
        <ele>330.0</ele>
      </trkpt>
      <trkpt lat="43.286715" lon="5.656108">
        <time>1970-01-01T00:00:00+00:00</time>
        <ele>333.0</ele>
      </trkpt>
      <trkpt lat="43.286715" lon="5.656929">
        <time>1970-01-01T00:00:00+00:00</time>
        <ele>350.0</ele>
      </trkpt>
      <trkpt lat="43.286703" lon="5.657385">
        <time>1970-01-01T00:00:00+00:00</time>
        <ele>359.0</ele>
      </trkpt>
      <trkpt lat="43.28664" lon="5.657825">
        <time>1970-01-01T00:00:00+00:00</time>
        <ele>368.0</ele>
      </trkpt>
      <trkpt lat="43.28657" lon="5.658039">
        <time>1970-01-01T00:00:00+00:00</time>
        <ele>373.0</ele>
      </trkpt>
      <trkpt lat="43.286445" lon="5.658184">
        <time>1970-01-01T00:00:00+00:00</time>
        <ele>379.0</ele>
      </trkpt>
      <trkpt lat="43.286305" lon="5.65819">
        <time>1970-01-01T00:00:00+00:00</time>
        <ele>383.0</ele>
      </trkpt>
      <trkpt lat="43.285934" lon="5.657707">
        <time>1970-01-01T00:00:00+00:00</time>
        <ele>394.0</ele>
      </trkpt>
      <trkpt lat="43.285692" lon="5.657337">
        <time>1970-01-01T00:00:00+00:00</time>
        <ele>400.0</ele>
      </trkpt>
      <trkpt lat="43.28559" lon="5.657299">
        <time>1970-01-01T00:00:00+00:00</time>
        <ele>404.0</ele>
      </trkpt>
      <trkpt lat="43.285559" lon="5.657428">
        <time>1970-01-01T00:00:00+00:00</time>
        <ele>408.0</ele>
      </trkpt>
      <trkpt lat="43.28557" lon="5.658023">
        <time>1970-01-01T00:00:00+00:00</time>
        <ele>417.0</ele>
      </trkpt>
      <trkpt lat="43.285645" lon="5.658785">
        <time>1970-01-01T00:00:00+00:00</time>
        <ele>425.0</ele>
      </trkpt>
      <trkpt lat="43.285652" lon="5.659289">
        <time>1970-01-01T00:00:00+00:00</time>
        <ele>435.0</ele>
      </trkpt>
      <trkpt lat="43.285734" lon="5.659603">
        <time>1970-01-01T00:00:00+00:00</time>
        <ele>443.0</ele>
      </trkpt>
      <trkpt lat="43.28601" lon="5.660019">
        <time>1970-01-01T00:00:00+00:00</time>
        <ele>451.0</ele>
      </trkpt>
      <trkpt lat="43.286012" lon="5.660067">
        <time>1970-01-01T00:00:00+00:00</time>
        <ele>453.0</ele>
      </trkpt>
      <trkpt lat="43.285871" lon="5.660038">
        <time>1970-01-01T00:00:00+00:00</time>
        <ele>455.0</ele>
      </trkpt>
      <trkpt lat="43.285734" lon="5.660156">
        <time>1970-01-01T00:00:00+00:00</time>
        <ele>463.0</ele>
      </trkpt>
      <trkpt lat="43.285469" lon="5.660247">
        <time>1970-01-01T00:00:00+00:00</time>
        <ele>473.0</ele>
      </trkpt>
      <trkpt lat="43.285365" lon="5.66033">
        <time>1970-01-01T00:00:00+00:00</time>
        <ele>479.0</ele>
      </trkpt>
      <trkpt lat="43.285356" lon="5.660416">
        <time>1970-01-01T00:00:00+00:00</time>
        <ele>483.0</ele>
      </trkpt>
      <trkpt lat="43.285379" lon="5.660502">
        <time>1970-01-01T00:00:00+00:00</time>
        <ele>485.0</ele>
      </trkpt>
      <trkpt lat="43.285676" lon="5.661003">
        <time>1970-01-01T00:00:00+00:00</time>
        <ele>494.0</ele>
      </trkpt>
      <trkpt lat="43.285719" lon="5.661124">
        <time>1970-01-01T00:00:00+00:00</time>
        <ele>495.0</ele>
      </trkpt>
      <trkpt lat="43.285713" lon="5.661258">
        <time>1970-01-01T00:00:00+00:00</time>
        <ele>497.0</ele>
      </trkpt>
      <trkpt lat="43.285629" lon="5.661449">
        <time>1970-01-01T00:00:00+00:00</time>
        <ele>500.0</ele>
      </trkpt>
      <trkpt lat="43.285488" lon="5.661666">
        <time>1970-01-01T00:00:00+00:00</time>
        <ele>502.0</ele>
      </trkpt>
      <trkpt lat="43.285406" lon="5.661757">
        <time>1970-01-01T00:00:00+00:00</time>
        <ele>502.0</ele>
      </trkpt>
      <trkpt lat="43.285018" lon="5.661867">
        <time>1970-01-01T00:00:00+00:00</time>
        <ele>507.0</ele>
      </trkpt>
      <trkpt lat="43.284899" lon="5.661854">
        <time>1970-01-01T00:00:00+00:00</time>
        <ele>508.0</ele>
      </trkpt>
      <trkpt lat="43.284778" lon="5.6618">
        <time>1970-01-01T00:00:00+00:00</time>
        <ele>509.0</ele>
      </trkpt>
      <trkpt lat="43.284643" lon="5.661682">
        <time>1970-01-01T00:00:00+00:00</time>
        <ele>513.0</ele>
      </trkpt>
      <trkpt lat="43.284545" lon="5.661569">
        <time>1970-01-01T00:00:00+00:00</time>
        <ele>516.0</ele>
      </trkpt>
      <trkpt lat="43.284124" lon="5.661497">
        <time>1970-01-01T00:00:00+00:00</time>
        <ele>514.0</ele>
      </trkpt>
      <trkpt lat="43.28393" lon="5.661371">
        <time>1970-01-01T00:00:00+00:00</time>
        <ele>513.0</ele>
      </trkpt>
      <trkpt lat="43.283755" lon="5.661215">
        <time>1970-01-01T00:00:00+00:00</time>
        <ele>515.0</ele>
      </trkpt>
      <trkpt lat="43.283665" lon="5.661183">
        <time>1970-01-01T00:00:00+00:00</time>
        <ele>515.0</ele>
      </trkpt>
      <trkpt lat="43.283434" lon="5.661269">
        <time>1970-01-01T00:00:00+00:00</time>
        <ele>512.0</ele>
      </trkpt>
      <trkpt lat="43.283294" lon="5.661263">
        <time>1970-01-01T00:00:00+00:00</time>
        <ele>511.0</ele>
      </trkpt>
      <trkpt lat="43.283196" lon="5.661226">
        <time>1970-01-01T00:00:00+00:00</time>
        <ele>511.0</ele>
      </trkpt>
      <trkpt lat="43.283079" lon="5.661226">
        <time>1970-01-01T00:00:00+00:00</time>
        <ele>512.0</ele>
      </trkpt>
      <trkpt lat="43.2829" lon="5.661258">
        <time>1970-01-01T00:00:00+00:00</time>
        <ele>514.0</ele>
      </trkpt>
      <trkpt lat="43.282595" lon="5.661017">
        <time>1970-01-01T00:00:00+00:00</time>
        <ele>514.0</ele>
      </trkpt>
      <trkpt lat="43.282454" lon="5.660781">
        <time>1970-01-01T00:00:00+00:00</time>
        <ele>511.0</ele>
      </trkpt>
      <trkpt lat="43.282212" lon="5.660158">
        <time>1970-01-01T00:00:00+00:00</time>
        <ele>510.0</ele>
      </trkpt>
      <trkpt lat="43.282212" lon="5.660459">
        <time>1970-01-01T00:00:00+00:00</time>
        <ele>515.0</ele>
      </trkpt>
      <trkpt lat="43.282314" lon="5.66077">
        <time>1970-01-01T00:00:00+00:00</time>
        <ele>516.0</ele>
      </trkpt>
      <trkpt lat="43.282322" lon="5.661103">
        <time>1970-01-01T00:00:00+00:00</time>
        <ele>518.0</ele>
      </trkpt>
      <trkpt lat="43.282251" lon="5.661274">
        <time>1970-01-01T00:00:00+00:00</time>
        <ele>518.0</ele>
      </trkpt>
      <trkpt lat="43.281906" lon="5.66166">
        <time>1970-01-01T00:00:00+00:00</time>
        <ele>525.0</ele>
      </trkpt>
      <trkpt lat="43.281853" lon="5.661832">
        <time>1970-01-01T00:00:00+00:00</time>
        <ele>527.0</ele>
      </trkpt>
      <trkpt lat="43.281861" lon="5.662057">
        <time>1970-01-01T00:00:00+00:00</time>
        <ele>526.0</ele>
      </trkpt>
      <trkpt lat="43.281814" lon="5.662218">
        <time>1970-01-01T00:00:00+00:00</time>
        <ele>527.0</ele>
      </trkpt>
      <trkpt lat="43.281728" lon="5.662369">
        <time>1970-01-01T00:00:00+00:00</time>
        <ele>529.0</ele>
      </trkpt>
      <trkpt lat="43.281705" lon="5.662375">
        <time>1970-01-01T00:00:00+00:00</time>
        <ele>530.0</ele>
      </trkpt>
      <trkpt lat="43.281656" lon="5.662365">
        <time>1970-01-01T00:00:00+00:00</time>
        <ele>533.0</ele>
      </trkpt>
      <trkpt lat="43.281601" lon="5.662229">
        <time>1970-01-01T00:00:00+00:00</time>
        <ele>538.0</ele>
      </trkpt>
      <trkpt lat="43.281601" lon="5.662229">
        <time>1970-01-01T00:00:00+00:00</time>
        <ele>538.0</ele>
      </trkpt>
      <trkpt lat="43.281656" lon="5.662365">
        <time>1970-01-01T00:00:00+00:00</time>
        <ele>533.0</ele>
      </trkpt>
      <trkpt lat="43.281705" lon="5.662375">
        <time>1970-01-01T00:00:00+00:00</time>
        <ele>530.0</ele>
      </trkpt>
      <trkpt lat="43.281728" lon="5.662369">
        <time>1970-01-01T00:00:00+00:00</time>
        <ele>529.0</ele>
      </trkpt>
      <trkpt lat="43.281814" lon="5.662218">
        <time>1970-01-01T00:00:00+00:00</time>
        <ele>527.0</ele>
      </trkpt>
      <trkpt lat="43.281861" lon="5.662057">
        <time>1970-01-01T00:00:00+00:00</time>
        <ele>526.0</ele>
      </trkpt>
      <trkpt lat="43.281853" lon="5.661832">
        <time>1970-01-01T00:00:00+00:00</time>
        <ele>527.0</ele>
      </trkpt>
      <trkpt lat="43.281906" lon="5.66166">
        <time>1970-01-01T00:00:00+00:00</time>
        <ele>525.0</ele>
      </trkpt>
      <trkpt lat="43.282251" lon="5.661274">
        <time>1970-01-01T00:00:00+00:00</time>
        <ele>518.0</ele>
      </trkpt>
      <trkpt lat="43.282322" lon="5.661103">
        <time>1970-01-01T00:00:00+00:00</time>
        <ele>518.0</ele>
      </trkpt>
      <trkpt lat="43.282314" lon="5.66077">
        <time>1970-01-01T00:00:00+00:00</time>
        <ele>516.0</ele>
      </trkpt>
      <trkpt lat="43.282212" lon="5.660459">
        <time>1970-01-01T00:00:00+00:00</time>
        <ele>515.0</ele>
      </trkpt>
      <trkpt lat="43.282212" lon="5.660158">
        <time>1970-01-01T00:00:00+00:00</time>
        <ele>510.0</ele>
      </trkpt>
      <trkpt lat="43.282454" lon="5.660781">
        <time>1970-01-01T00:00:00+00:00</time>
        <ele>511.0</ele>
      </trkpt>
      <trkpt lat="43.282595" lon="5.661017">
        <time>1970-01-01T00:00:00+00:00</time>
        <ele>514.0</ele>
      </trkpt>
      <trkpt lat="43.2829" lon="5.661258">
        <time>1970-01-01T00:00:00+00:00</time>
        <ele>514.0</ele>
      </trkpt>
      <trkpt lat="43.283079" lon="5.661226">
        <time>1970-01-01T00:00:00+00:00</time>
        <ele>512.0</ele>
      </trkpt>
      <trkpt lat="43.283196" lon="5.661226">
        <time>1970-01-01T00:00:00+00:00</time>
        <ele>511.0</ele>
      </trkpt>
      <trkpt lat="43.283294" lon="5.661263">
        <time>1970-01-01T00:00:00+00:00</time>
        <ele>511.0</ele>
      </trkpt>
      <trkpt lat="43.283434" lon="5.661269">
        <time>1970-01-01T00:00:00+00:00</time>
        <ele>512.0</ele>
      </trkpt>
      <trkpt lat="43.283665" lon="5.661183">
        <time>1970-01-01T00:00:00+00:00</time>
        <ele>515.0</ele>
      </trkpt>
      <trkpt lat="43.283755" lon="5.661215">
        <time>1970-01-01T00:00:00+00:00</time>
        <ele>515.0</ele>
      </trkpt>
      <trkpt lat="43.28393" lon="5.661371">
        <time>1970-01-01T00:00:00+00:00</time>
        <ele>513.0</ele>
      </trkpt>
      <trkpt lat="43.284124" lon="5.661497">
        <time>1970-01-01T00:00:00+00:00</time>
        <ele>514.0</ele>
      </trkpt>
      <trkpt lat="43.284545" lon="5.661569">
        <time>1970-01-01T00:00:00+00:00</time>
        <ele>516.0</ele>
      </trkpt>
      <trkpt lat="43.284643" lon="5.661682">
        <time>1970-01-01T00:00:00+00:00</time>
        <ele>513.0</ele>
      </trkpt>
      <trkpt lat="43.284778" lon="5.6618">
        <time>1970-01-01T00:00:00+00:00</time>
        <ele>509.0</ele>
      </trkpt>
      <trkpt lat="43.284899" lon="5.661854">
        <time>1970-01-01T00:00:00+00:00</time>
        <ele>508.0</ele>
      </trkpt>
      <trkpt lat="43.285018" lon="5.661867">
        <time>1970-01-01T00:00:00+00:00</time>
        <ele>507.0</ele>
      </trkpt>
      <trkpt lat="43.285406" lon="5.661757">
        <time>1970-01-01T00:00:00+00:00</time>
        <ele>502.0</ele>
      </trkpt>
      <trkpt lat="43.285488" lon="5.661666">
        <time>1970-01-01T00:00:00+00:00</time>
        <ele>502.0</ele>
      </trkpt>
      <trkpt lat="43.285629" lon="5.661449">
        <time>1970-01-01T00:00:00+00:00</time>
        <ele>500.0</ele>
      </trkpt>
      <trkpt lat="43.285713" lon="5.661258">
        <time>1970-01-01T00:00:00+00:00</time>
        <ele>497.0</ele>
      </trkpt>
      <trkpt lat="43.285719" lon="5.661124">
        <time>1970-01-01T00:00:00+00:00</time>
        <ele>495.0</ele>
      </trkpt>
      <trkpt lat="43.285676" lon="5.661003">
        <time>1970-01-01T00:00:00+00:00</time>
        <ele>494.0</ele>
      </trkpt>
      <trkpt lat="43.285379" lon="5.660502">
        <time>1970-01-01T00:00:00+00:00</time>
        <ele>485.0</ele>
      </trkpt>
      <trkpt lat="43.285356" lon="5.660416">
        <time>1970-01-01T00:00:00+00:00</time>
        <ele>483.0</ele>
      </trkpt>
      <trkpt lat="43.285365" lon="5.66033">
        <time>1970-01-01T00:00:00+00:00</time>
        <ele>479.0</ele>
      </trkpt>
      <trkpt lat="43.285469" lon="5.660247">
        <time>1970-01-01T00:00:00+00:00</time>
        <ele>473.0</ele>
      </trkpt>
      <trkpt lat="43.285734" lon="5.660156">
        <time>1970-01-01T00:00:00+00:00</time>
        <ele>463.0</ele>
      </trkpt>
      <trkpt lat="43.285871" lon="5.660038">
        <time>1970-01-01T00:00:00+00:00</time>
        <ele>455.0</ele>
      </trkpt>
      <trkpt lat="43.286012" lon="5.660067">
        <time>1970-01-01T00:00:00+00:00</time>
        <ele>453.0</ele>
      </trkpt>
      <trkpt lat="43.28601" lon="5.660019">
        <time>1970-01-01T00:00:00+00:00</time>
        <ele>451.0</ele>
      </trkpt>
      <trkpt lat="43.285734" lon="5.659603">
        <time>1970-01-01T00:00:00+00:00</time>
        <ele>443.0</ele>
      </trkpt>
      <trkpt lat="43.285652" lon="5.659289">
        <time>1970-01-01T00:00:00+00:00</time>
        <ele>435.0</ele>
      </trkpt>
      <trkpt lat="43.285645" lon="5.658785">
        <time>1970-01-01T00:00:00+00:00</time>
        <ele>425.0</ele>
      </trkpt>
      <trkpt lat="43.28557" lon="5.658023">
        <time>1970-01-01T00:00:00+00:00</time>
        <ele>417.0</ele>
      </trkpt>
      <trkpt lat="43.285559" lon="5.657428">
        <time>1970-01-01T00:00:00+00:00</time>
        <ele>408.0</ele>
      </trkpt>
      <trkpt lat="43.28559" lon="5.657299">
        <time>1970-01-01T00:00:00+00:00</time>
        <ele>404.0</ele>
      </trkpt>
      <trkpt lat="43.285692" lon="5.657337">
        <time>1970-01-01T00:00:00+00:00</time>
        <ele>400.0</ele>
      </trkpt>
      <trkpt lat="43.285934" lon="5.657707">
        <time>1970-01-01T00:00:00+00:00</time>
        <ele>394.0</ele>
      </trkpt>
      <trkpt lat="43.286305" lon="5.65819">
        <time>1970-01-01T00:00:00+00:00</time>
        <ele>383.0</ele>
      </trkpt>
      <trkpt lat="43.286445" lon="5.658184">
        <time>1970-01-01T00:00:00+00:00</time>
        <ele>379.0</ele>
      </trkpt>
      <trkpt lat="43.28657" lon="5.658039">
        <time>1970-01-01T00:00:00+00:00</time>
        <ele>373.0</ele>
      </trkpt>
      <trkpt lat="43.28664" lon="5.657825">
        <time>1970-01-01T00:00:00+00:00</time>
        <ele>368.0</ele>
      </trkpt>
      <trkpt lat="43.286703" lon="5.657385">
        <time>1970-01-01T00:00:00+00:00</time>
        <ele>359.0</ele>
      </trkpt>
      <trkpt lat="43.286715" lon="5.656929">
        <time>1970-01-01T00:00:00+00:00</time>
        <ele>350.0</ele>
      </trkpt>
      <trkpt lat="43.286715" lon="5.656108">
        <time>1970-01-01T00:00:00+00:00</time>
        <ele>333.0</ele>
      </trkpt>
      <trkpt lat="43.286703" lon="5.655888">
        <time>1970-01-01T00:00:00+00:00</time>
        <ele>330.0</ele>
      </trkpt>
      <trkpt lat="43.286605" lon="5.655534">
        <time>1970-01-01T00:00:00+00:00</time>
        <ele>324.0</ele>
      </trkpt>
      <trkpt lat="43.286476" lon="5.654563">
        <time>1970-01-01T00:00:00+00:00</time>
        <ele>302.0</ele>
      </trkpt>
      <trkpt lat="43.286315" lon="5.654262">
        <time>1970-01-01T00:00:00+00:00</time>
        <ele>296.0</ele>
      </trkpt>
      <trkpt lat="43.286567" lon="5.65403">
        <time>1970-01-01T00:00:00+00:00</time>
        <ele>289.0</ele>
      </trkpt>
      <trkpt lat="43.286727" lon="5.653761">
        <time>1970-01-01T00:00:00+00:00</time>
        <ele>285.0</ele>
      </trkpt>
      <trkpt lat="43.286795" lon="5.653678">
        <time>1970-01-01T00:00:00+00:00</time>
        <ele>285.0</ele>
      </trkpt>
      <trkpt lat="43.286881" lon="5.653615">
        <time>1970-01-01T00:00:00+00:00</time>
        <ele>284.0</ele>
      </trkpt>
      <trkpt lat="43.286936" lon="5.653534">
        <time>1970-01-01T00:00:00+00:00</time>
        <ele>282.0</ele>
      </trkpt>
      <trkpt lat="43.286996" lon="5.653444">
        <time>1970-01-01T00:00:00+00:00</time>
        <ele>281.0</ele>
      </trkpt>
      <trkpt lat="43.287054" lon="5.653295">
        <time>1970-01-01T00:00:00+00:00</time>
        <ele>280.0</ele>
      </trkpt>
      <trkpt lat="43.287215" lon="5.652988">
        <time>1970-01-01T00:00:00+00:00</time>
        <ele>278.0</ele>
      </trkpt>
      <trkpt lat="43.287403" lon="5.652666">
        <time>1970-01-01T00:00:00+00:00</time>
        <ele>273.0</ele>
      </trkpt>
      <trkpt lat="43.287441" lon="5.652532">
        <time>1970-01-01T00:00:00+00:00</time>
        <ele>272.0</ele>
      </trkpt>
      <trkpt lat="43.28746" lon="5.65235">
        <time>1970-01-01T00:00:00+00:00</time>
        <ele>270.0</ele>
      </trkpt>
      <trkpt lat="43.287425" lon="5.652027">
        <time>1970-01-01T00:00:00+00:00</time>
        <ele>267.0</ele>
      </trkpt>
      <trkpt lat="43.287361" lon="5.651694">
        <time>1970-01-01T00:00:00+00:00</time>
        <ele>263.0</ele>
      </trkpt>
      <trkpt lat="43.28735" lon="5.651473">
        <time>1970-01-01T00:00:00+00:00</time>
        <ele>260.0</ele>
      </trkpt>
      <trkpt lat="43.28738" lon="5.65136">
        <time>1970-01-01T00:00:00+00:00</time>
        <ele>258.0</ele>
      </trkpt>
      <trkpt lat="43.287425" lon="5.651286">
        <time>1970-01-01T00:00:00+00:00</time>
        <ele>257.0</ele>
      </trkpt>
      <trkpt lat="43.287693" lon="5.651003">
        <time>1970-01-01T00:00:00+00:00</time>
        <ele>250.0</ele>
      </trkpt>
      <trkpt lat="43.287985" lon="5.650655">
        <time>1970-01-01T00:00:00+00:00</time>
        <ele>245.0</ele>
      </trkpt>
      <trkpt lat="43.288104" lon="5.650593">
        <time>1970-01-01T00:00:00+00:00</time>
        <ele>243.0</ele>
      </trkpt>
      <trkpt lat="43.288283" lon="5.650557">
        <time>1970-01-01T00:00:00+00:00</time>
        <ele>241.0</ele>
      </trkpt>
      <trkpt lat="43.288503" lon="5.650432">
        <time>1970-01-01T00:00:00+00:00</time>
        <ele>239.0</ele>
      </trkpt>
      <trkpt lat="43.289187" lon="5.649944">
        <time>1970-01-01T00:00:00+00:00</time>
        <ele>226.0</ele>
      </trkpt>
      <trkpt lat="43.289313" lon="5.649792">
        <time>1970-01-01T00:00:00+00:00</time>
        <ele>222.0</ele>
      </trkpt>
      <trkpt lat="43.28952" lon="5.649445">
        <time>1970-01-01T00:00:00+00:00</time>
        <ele>219.0</ele>
      </trkpt>
      <trkpt lat="43.289713" lon="5.649179">
        <time>1970-01-01T00:00:00+00:00</time>
        <ele>216.0</ele>
      </trkpt>
      <trkpt lat="43.289741" lon="5.649169">
        <time>1970-01-01T00:00:00+00:00</time>
        <ele>216.0</ele>
      </trkpt>
      <trkpt lat="43.289803" lon="5.649094">
        <time>1970-01-01T00:00:00+00:00</time>
        <ele>216.0</ele>
      </trkpt>
      <trkpt lat="43.289968" lon="5.648829">
        <time>1970-01-01T00:00:00+00:00</time>
        <ele>214.0</ele>
      </trkpt>
      <trkpt lat="43.290376" lon="5.648369">
        <time>1970-01-01T00:00:00+00:00</time>
        <ele>210.0</ele>
      </trkpt>
      <trkpt lat="43.290457" lon="5.648305">
        <time>1970-01-01T00:00:00+00:00</time>
        <ele>209.0</ele>
      </trkpt>
      <trkpt lat="43.290977" lon="5.648137">
        <time>1970-01-01T00:00:00+00:00</time>
        <ele>206.0</ele>
      </trkpt>
      <trkpt lat="43.291074" lon="5.648171">
        <time>1970-01-01T00:00:00+00:00</time>
        <ele>206.0</ele>
      </trkpt>
      <trkpt lat="43.291033" lon="5.648255">
        <time>1970-01-01T00:00:00+00:00</time>
        <ele>206.0</ele>
      </trkpt>
      <trkpt lat="43.29102" lon="5.648434">
        <time>1970-01-01T00:00:00+00:00</time>
        <ele>206.0</ele>
      </trkpt>
      <trkpt lat="43.291067" lon="5.648538">
        <time>1970-01-01T00:00:00+00:00</time>
        <ele>206.0</ele>
      </trkpt>
      <trkpt lat="43.291116" lon="5.648592">
        <time>1970-01-01T00:00:00+00:00</time>
        <ele>206.0</ele>
      </trkpt>
      <trkpt lat="43.291223" lon="5.64863">
        <time>1970-01-01T00:00:00+00:00</time>
        <ele>206.0</ele>
      </trkpt>
      <trkpt lat="43.291245" lon="5.648582">
        <time>1970-01-01T00:00:00+00:00</time>
        <ele>206.0</ele>
      </trkpt>
      <trkpt lat="43.291271" lon="5.648526">
        <time>1970-01-01T00:00:00+00:00</time>
        <ele>206.0</ele>
      </trkpt>
      <trkpt lat="43.291281" lon="5.648473">
        <time>1970-01-01T00:00:00+00:00</time>
        <ele>205.0</ele>
      </trkpt>
      <trkpt lat="43.291375" lon="5.648452">
        <time>1970-01-01T00:00:00+00:00</time>
        <ele>203.0</ele>
      </trkpt>
      <trkpt lat="43.291335" lon="5.648144">
        <time>1970-01-01T00:00:00+00:00</time>
        <ele>203.0</ele>
      </trkpt>
      <trkpt lat="43.291533" lon="5.648152">
        <time>1970-01-01T00:00:00+00:00</time>
        <ele>200.0</ele>
      </trkpt>
      <trkpt lat="43.291528" lon="5.647834">
        <time>1970-01-01T00:00:00+00:00</time>
        <ele>199.0</ele>
      </trkpt>
      <trkpt lat="43.291691" lon="5.647248">
        <time>1970-01-01T00:00:00+00:00</time>
        <ele>198.0</ele>
      </trkpt>
      <trkpt lat="43.291803" lon="5.646642">
        <time>1970-01-01T00:00:00+00:00</time>
        <ele>192.0</ele>
      </trkpt>
      <trkpt lat="43.291874" lon="5.646403">
        <time>1970-01-01T00:00:00+00:00</time>
        <ele>189.0</ele>
      </trkpt>
      <trkpt lat="43.291978" lon="5.646184">
        <time>1970-01-01T00:00:00+00:00</time>
        <ele>187.0</ele>
      </trkpt>
      <trkpt lat="43.291659" lon="5.645612">
        <time>1970-01-01T00:00:00+00:00</time>
        <ele>185.0</ele>
      </trkpt>
      <trkpt lat="43.291673" lon="5.645316">
        <time>1970-01-01T00:00:00+00:00</time>
        <ele>183.0</ele>
      </trkpt>
      <trkpt lat="43.29161" lon="5.645073">
        <time>1970-01-01T00:00:00+00:00</time>
        <ele>182.0</ele>
      </trkpt>
      <trkpt lat="43.291526" lon="5.64483">
        <time>1970-01-01T00:00:00+00:00</time>
        <ele>181.0</ele>
      </trkpt>
      <trkpt lat="43.291541" lon="5.644667">
        <time>1970-01-01T00:00:00+00:00</time>
        <ele>181.0</ele>
      </trkpt>
      <trkpt lat="43.29169" lon="5.644309">
        <time>1970-01-01T00:00:00+00:00</time>
        <ele>179.0</ele>
      </trkpt>
      <trkpt lat="43.291734" lon="5.64421">
        <time>1970-01-01T00:00:00+00:00</time>
        <ele>179.0</ele>
      </trkpt>
      <trkpt lat="43.291778" lon="5.643924">
        <time>1970-01-01T00:00:00+00:00</time>
        <ele>179.0</ele>
      </trkpt>
      <trkpt lat="43.291835" lon="5.643692">
        <time>1970-01-01T00:00:00+00:00</time>
        <ele>178.0</ele>
      </trkpt>
      <trkpt lat="43.291892" lon="5.643619">
        <time>1970-01-01T00:00:00+00:00</time>
        <ele>178.0</ele>
      </trkpt>
      <trkpt lat="43.291947" lon="5.643593">
        <time>1970-01-01T00:00:00+00:00</time>
        <ele>178.0</ele>
      </trkpt>
      <trkpt lat="43.291991" lon="5.643448">
        <time>1970-01-01T00:00:00+00:00</time>
        <ele>177.0</ele>
      </trkpt>
      <trkpt lat="43.292106" lon="5.642934">
        <time>1970-01-01T00:00:00+00:00</time>
        <ele>175.0</ele>
      </trkpt>
      <trkpt lat="43.292123" lon="5.642777">
        <time>1970-01-01T00:00:00+00:00</time>
        <ele>175.0</ele>
      </trkpt>
    </trkseg>
  </trk>
</gpx>
